Regional Weather Roundup
Issued by NWS

Home | Current Version | Previous Version | Text Only | Print | Product List | Glossary On
Versions: 1 2 3 4 5 6 7 8 9 10 11 12 13 14 15 16 17 18 19 20 21 22 23 24 25 26 27 28 29 30 31 32 33 34 35 36 37 38 39 40 41 42 43 44 45 46 47 48 49 50
000
ASUS46 KPQR 051410
RWROR

OREGON REGIONAL WEATHER ROUNDUP
NATIONAL WEATHER SERVICE PORTLAND OR
600 AM PST THU MAR 05 2015

NOTE: "FAIR" INDICATES FEW OR NO CLOUDS BELOW 12,000 FEET WITH
NO SIGNIFICANT WEATHER AND/OR OBSTRUCTIONS TO VISIBILITY.

ORZ001>013-051500-
NORTHWEST OREGON


CITY           SKY/WX    TMP DP  RH WIND       PRES   REMARKS
ASTORIA        PTCLDY    34  31  88 SE3       30.30S
NEWPORT        CLEAR     37  32  81 SE3       30.32R
PORTLAND       PTCLDY    34  30  85 CALM      30.34R
VANCOUVER WA   PTCLDY    32  27  81 CALM      30.34R
SCAPPOOSE      PTCLDY    31  28  89 CALM      30.33R
HILLSBORO      PTCLDY    30  28  92 CALM      30.32R
AURORA         PTCLDY    31  29  92 SE3       30.34R
MCMINNVILLE    CLEAR     31  29  92 CALM      30.33R
SALEM          CLEAR     31  28  89 CALM      30.32R
CORVALLIS      CLEAR     28  27  93 S3        30.33R
EUGENE         PTCLDY    28  26  92 S6        30.32S WCI  22
$$

ORZ021-028-051500-
SOUTHWEST OREGON


CITY           SKY/WX    TMP DP  RH WIND       PRES   REMARKS
NORTH BEND     CLEAR     36  36 100 SE7       30.30R WCI  30
BROOKINGS      CLEAR     40  40 100 CALM      30.27R
ROSEBURG       FOG       33  31  92 S3        30.32R VSB 1/4
SEXTON SUMMIT  CLEAR     43  28  55 SE6       30.27R
MEDFORD        CLEAR     32  28  85 CALM      30.33R
$$

ORZ014>016-041-051500-
COLUMBIA GORGE


CITY           SKY/WX    TMP DP  RH WIND       PRES   REMARKS
TROUTDALE      PTCLDY    32  29  88 CALM      30.33R
THE DALLES     CLEAR     27  23  85 SE5       30.34R WCI  22
$$

ORZ029>031-041-044-049-050-061>064-502-503-505>511-051500-
EASTERN OREGON


CITY           SKY/WX    TMP DP  RH WIND       PRES   REMARKS
REDMOND        PTCLDY    18  13  80 CALM      30.28R
BEND           PTCLDY    23  14  68 CALM      30.28R
PRINEVILLE     PTCLDY    21  16  79 E5        30.29R WCI  15
KLAMATH FALLS  CLEAR     19  13  77 CALM      30.33R
LAKEVIEW       PTCLDY    14   9  79 NW7       30.34R WCI   4
HERMISTON      PTCLDY    25  18  74 S6        30.31R WCI  18
PENDLETON      PTCLDY    31  17  56 SE5       30.27R WCI  26
JOHN DAY       PTCLDY    30  18  62 E8        30.31R WCI  22
MEACHAM        PTCLDY    19  14  81 CALM      30.26S
LA GRANDE      PTCLDY    28  10  47 S3        30.30S
BAKER CITY     PTCLDY    15  11  83 CALM      30.35R
BURNS          MOCLDY    18  12  77 CALM      30.33R
ROME             N/A     20  11  68 SW5       30.34R WCI  13
ONTARIO        MOCLDY    19  12  74 CALM      30.42R
$$



USA.gov is the U.S. government's official web portal to all federal, state and local government web resources and services.